"Pseudo-MPEC" for P21JQIt

Created 2023 Sep 19 11:22:49 UT using Find_Orb

Click here for an explanation of pseudo-MPECs

 
 Astrometry: 
     P21JQIt  C2023 09 13V6mHF_*X!Gb$sd/a8FN:S%qAstrometry4ye*g';W'.YMGdC%ekAF52
     P21JQIt  C2023 09 13Cd,,KxRy8+YctXO$0?W7(7eOU./tSPq6WC4/CnDB4sGh)@Ft79RFF52
     P21JQIt  C2023 09 13;tUEkM\Hqp1:QYpu^nIMQCs%Fd?RdAG^Pl)$(+uyiPu_KQCsJ$xwF52
     P21JQIt  C2023 09 13]xa*%wQcNwF,Q'YGpcC/ht,;OWs'TVYp3cu0n98E_DK7%^^uG[^5F52
     P21JQIt  C2023 09 160E*9#t0ZSZmp0WdIpredacted;/bn5Sts8IuM.d7-oPcrJs,W.SMF52
     P21JQIt  C2023 09 1617A[!)Oj]I=OMl[W:hDQRo$_L2lT*#EK8FUhj8kbgTCS17u7\LD+F52
     P21JQIt* C2023 09 18+)1queS1Mk1(3clickVt%;wr_Q*PLu2S?q8)/RH1_3_PEAd!pC?1F52
     P21JQIt  C2023 09 18@7JKu!RKg+D_C!B,Sj8XWB#R`XH)wZ$h^O_[C'fg@chbJu,hgdy0F52
     P21JQIt  C2023 09 18A+pyTTPh2?a7@wZGcGg'jOQ?5s-LquWAueOK-aD4#[T;!==BDaKOF52
     P21JQIt  C2023 09 18`g:N^6`Z1%/63q[!tUt20kO,66W?pqB^2JvdVgjf##78X1Ug_AwPF52
     P21JQIt  C2023 09 18p]@`::V1\nw`kyKGf;gDr$\Pik=(2nY\QSvEm-V)!TjlSont05\:F52
     P21JQIt  C2023 09 18Tf)F]2X+E;\R7[D7)EMFSBnM,*EBDy.'EEmXPlMfEGE=_(=^0=7,F52
     P21JQIt 1C2023 09 18.82177 23 31 55.61 +25 19 47.3    ~9IKM 19.8 VXNEOCP033
     P21JQIt 1C2023 09 18.82208 23 31 55.31 +25 19 42.1    ~9IKM 19.9 VXNEOCP033
     P21JQIt 1C2023 09 18.82239 23 31 55.01 +25 19 37.0    ~9IKM 19.8 VXNEOCP033
     P21JQIt KB2023 09 182mc5`=Dgi5tt'!`L@.K]G.T+rqC$);qE%-_v+'8NgHChcJbqOy7SM45
     P21JQIt KB2023 09 18#/%h._.uFGq+Nc4DP6Bsyl5Ju5hghFvGFVbX]Xe.d:rR8herehZOM45
     P21JQIt KB2023 09 18BLel5iB[?j[8Dpr[N]jlQDjrgJcQgU-ADv=Yo-;-a9WYt,qxH4wlM45
     P21JQIt KB2023 09 18.97713023 29 19.43 +24 34 08.6    ~9INq       VNEOCPI93
     P21JQIt KB2023 09 18.97941523 29 16.87 +24 33 24.7    ~9INq 19.8 GVNEOCPI93
     P21JQIt KB2023 09 18.98135523 29 14.70 +24 32 46.9    ~9INq 20.2 GVNEOCPI93
     P21JQIt KB2023 09 18-d=/MHP\UK'+h:TPUb7n?KC%Ba$DPU77sTFP\1!=CXps321\,6%1958
     P21JQIt KB2023 09 18X@ipD9-qG-q#7T48K*\)!/qgtSs02_BR(E#M80x:rp=/J,O6^Ykm958
     P21JQIt KB2023 09 18*Yh],RIku!ttX!2iyL;IDJMPL#@d\22@ET#+,w'[KU:h]Ynx)lHV958
     P21JQIt KC2023 09 19BOY=9o)%5NYlY@r0!T5WH;y+Om)2`+h\ZSNK\-;0g-DaZTbhjs6_H21
     P21JQIt KC2023 09 19ru4@$FZcipDEJLp,Y1qs;a-o$u9weSJ`AjB$'et%0DQZ+ele?='LH21
     P21JQIt KC2023 09 19f+GZ\f3`LTPDP.K;)QKM\,XGR43forqQnwyDx5devjs4J59erD7yH21
     P21JQIt KC2023 09 19'w2NOF;x/wpbuHR_3(O,.=VwVBo!3o\0'd_M9%i6u,1w8J0@Sq(pH21
     P21JQIt KC2023 09 19MIO[\x=lY(+abDf+4ky9)I$#u,LexplanationHfSroh.n,UMh`hH21
     P21JQIt 1C2023 09 19.21473523 25 25.396+23 11 22.42   ~9J67 18.97GVNEOCP703
     P21JQIt 1C2023 09 19.22009723 25 18.296+23 09 20.20   ~9J67 19.12GVNEOCP703
     P21JQIt 1C2023 09 19.22546223 25 11.222+23 07 15.89   ~9J67 19.41GVNEOCP703
     P21JQIt 1C2023 09 19.23087423 25 04.001+23 05 10.61   ~9J67 19.56GVNEOCP703

Station data:
(033) Karl Schwarzschild Observatory, Tautenburg  (N50.980137 E11.711240)
   Germany.  Observer B. Stecklum. 1.34-m f/3 Schmidt + CCD.
(703) Catalina Sky Survey  (N32.417003 W110.732640)  US/Arizona.  Observer E.
   J. Christensen. 0.68 m Schmidt + 10K CCD.
(958) Observatoire de Dax  (N43.693324 W1.030390)  France.  Observer P.
   Dupouy. 0.32-m Schmidt-Cassegrain.
(F52) Pan-STARRS 2, Haleakala  (N20.707382 W156.255910)  US/Hawaii.
   Observers J. Bulger, T. Dukes, T. Lowe, A. Schultz, M. Willman. Measurers
   K. Chambers, S. Chastel, T. de Boer, L. Denneau, J. Fairlamb, H.
   Flewelling, M. Huber, C.-C. Lin, E. Magnier, Y. Ramanjooloo, R. Wainscoat,
   R. Weryk. 1.8-m Ritchey-Chrétien + CCD.
(H21) Astronomical Research Observatory, Westfield  (N39.483054 W87.968270)
   US/Illinois.  Observer R. Holmes. Measurers S. Foglia, L. Buzzi, T.
   Linder, R. Holmes. 0.76-m f/3.0 astrograph + CCD0.81-m f/4.0 astrograph +
   CCD0.61-m f/4.5 astrograph + CCD0.40-m f/5.32 astrograph + CCD.
(I93) St Pardon de Conques  (N44.558708 W0.203000)  France.  Observers F.
   Losse, W. D'Anna. Measurer F. Losse. 0.40-m f/3.7 reflector + CCD.
(M45) Starhopper Observatory, Sfantu Gheorghe  (N45.865582 E25.768900)
   Romania.  Observer F. Ursache. 0.41-m f/7.5 reflector + CMO.

Orbital elements:  P21JQIt
   Perihelion 2023 Dec 5.97657 +/- 0.0115 TT = 23:26:15 (JD 2460284.47657)
Epoch 2023 Sep 19.0 TT = JDT 2460206.5   Earth MOID: 0.0029   Ve: 0.0098
M 273.63442306 +/- 0.016            (J2000 ecliptic)             AutoNEOCP
n   1.10758375 +/- 5.14e-5          Peri.  304.27636 +/- 0.0021
a   0.92516316 +/- 2.86e-5          Node   177.26479 +/- 0.00007
e   0.3653052 +/- 0.000111          Incl.   14.57075 +/- 0.006
P   0.89/325.03d           H 26.87  G  0.15   U  6.1
q 0.58719618 +/- 8.45e-5    Q 1.26313013 +/- 0.000142
From 33 observations 2023 Sept. 13-19; mean residual 0".24
Residuals in arcseconds: 
230913 F52  .09-  .03-    230918 F52  .08+  .06+    230918 958  .51+  .00     
230913 F52  .07-  .15+    230918 033  .04+  .10-    230918 958  1.1+  .62+    
230913 F52  .36+  .04-    230918 033  .03-  .16-    230919 H21  .02+  .24+    
230913 F52  .20-  .05-    230918 033  .09-  .11-    230919 H21  .03+  .22+    
230916 F52  .00   .08+    230918 M45  .25-  .12+    230919 H21  .10+  .03-    
230916 F52  .05-  .13-    230918 M45  .26-  .39-    230919 H21  .03-  .11+    
230918 F52  .07+  .10+    230918 M45  .31-  .19-    230919 H21  .11+  .02-    
230918 F52  .03+  .03+    230918 I93  .17-  .01+    230919 703  .09-  .56-    
230918 F52  .03+  .05+    230918 I93  .10-  .17+    230919 703  .58-  .20+    
230918 F52  .03-  .04-    230918 I93  .05+  .15-    230919 703  .04-  .30-    
230918 F52  .05-  .12-    230918 958  .19-  .19+    230919 703  .08-  .10+    

Ephemerides (geocentric):
Date (UTC) HH   RA             Dec           delta  r     elong  mag " sig PA
---- --------  ------------   ------------  ------ ------ -----  --- --------
2023 09 19 11  23 20 08.106   +21 27 43.19  .01475 1.0182 156.1 18.9 .078 149
2023 09 19 12  23 19 10.484   +21 07 15.15  .01448 1.0180 156.4 18.8 .081 150
2023 09 19 13  23 18 10.906   +20 45 57.95  .01420 1.0177 156.7 18.8 .083 152
2023 09 19 14  23 17 09.271   +20 23 48.78  .01393 1.0175 157.0 18.7 .086 154
2023 09 19 15  23 16 05.475   +20 00 44.61  .01365 1.0172 157.2 18.7 .090 155
2023 09 19 16  23 14 59.404   +19 36 42.21  .01338 1.0170 157.5 18.6 .093 157
2023 09 19 17  23 13 50.938   +19 11 38.07  .01311 1.0168 157.8 18.6 .097 158
2023 09 19 18  23 12 39.946   +18 45 28.48  .01283 1.0165 158.1 18.5 .101 160
2023 09 19 19  23 11 26.292   +18 18 09.39  .01256 1.0163 158.4 18.4 .106 162
2023 09 19 20  23 10 09.826   +17 49 36.47  .01230 1.0161 158.7 18.4 .111 163
2023 09 19 21  23 08 50.389   +17 19 45.07  .01203 1.0158 159.0 18.3 .116 165
2023 09 19 22  23 07 27.809   +16 48 30.16  .01176 1.0156 159.3 18.3 .122 167
2023 09 19 23  23 06 01.904   +16 15 46.32  .01150 1.0153 159.6 18.2 .128 168
2023 09 20 00  23 04 32.474   +15 41 27.72  .01123 1.0151 159.9 18.1 .135 170
2023 09 20 01  23 02 59.305   +15 05 28.07  .01097 1.0149 160.2 18.1 .142 171
2023 09 20 02  23 01 22.168   +14 27 40.59  .01071 1.0146 160.5 18.0 .150 172
2023 09 20 03  22 59 40.812   +13 47 57.97  .01045 1.0144 160.8 18.0 .158 174
2023 09 20 04  22 57 54.969   +13 06 12.33  .01020 1.0141 161.0 17.9 .167 175
2023 09 20 05  22 56 04.346   +12 22 15.18  .00994 1.0139 161.2 17.8 .177 177
2023 09 20 06  22 54 08.626   +11 35 57.41  .00969 1.0137 161.4 17.8 .188 178
2023 09 20 07  22 52 07.468   +10 47 09.18  .00944 1.0134 161.6 17.7 .199 179
2023 09 20 08  22 50 00.496   +09 55 39.98  .00920 1.0132 161.7 17.7 .211   0
2023 09 20 09  22 47 47.305   +09 01 18.53  .00895 1.0129 161.7 17.6 .224   1
2023 09 20 10  22 45 27.453   +08 03 52.80  .00871 1.0127 161.7 17.5 .238   2
2023 09 20 11  22 43 00.457   +07 03 09.96  .00848 1.0125 161.6 17.5 .253   3
2023 09 20 12  22 40 25.791   +05 58 56.47  .00824 1.0122 161.5 17.4 .269   4
2023 09 20 13  22 37 42.880   +04 50 58.02  .00801 1.0120 161.2 17.4 .286   5
2023 09 20 14  22 34 51.093   +03 38 59.70  .00779 1.0117 160.8 17.3 .303   6
2023 09 20 15  22 31 49.742   +02 22 46.02  .00757 1.0115 160.3 17.3 .322   7
2023 09 20 16  22 28 38.074   +01 02 01.17  .00736 1.0113 159.7 17.2 .342   8
2023 09 20 17  22 25 15.259   -00 23 30.81  .00715 1.0110 158.9 17.2 .362   9
2023 09 20 18  22 21 40.391   -01 54 05.63  .00695 1.0108 158.0 17.2 .383   9
2023 09 20 19  22 17 52.474   -03 29 58.36  .00675 1.0105 156.9 17.1 .404  10
2023 09 20 20  22 13 50.418   -05 11 22.84  981865 1.0103 155.6 17.1 .425  11
2023 09 20 21  22 09 33.026   -06 58 30.95  955016 1.0100 154.2 17.1 .446  11
2023 09 20 22  22 04 58.986   -08 51 31.79  929492 1.0098 152.6 17.1 .467  12
2023 09 20 23  22 00 06.865   -10 50 30.60  905406 1.0096 150.9 17.1 .485  13
2023 09 21 00  21 54 55.100   -12 55 27.60  882874 1.0093 149.0 17.1 .503  13
2023 09 21 01  21 49 21.989   -15 06 16.72  862019 1.0091 146.9 17.1 .517  14
2023 09 21 02  21 43 25.689   -17 22 44.19  842965 1.0088 144.6 17.1 .529  14
2023 09 21 03  21 37 04.216   -19 44 27.29  825837 1.0086 142.2 17.1 .536  15
2023 09 21 04  21 30 15.448   -22 10 53.13  810757 1.0083 139.7 17.1 .538  15
2023 09 21 05  21 22 57.143   -24 41 17.83  797840 1.0081 137.0 17.2 .534  15
2023 09 21 06  21 15 06.961   -27 14 46.13  787194 1.0079 134.2 17.2 .523  16
2023 09 21 07  21 06 42.510   -29 50 11.65  778912 1.0076 131.3 17.3 .505  16
2023 09 21 08  20 57 41.402   -32 26 17.89  773069 1.0074 128.3 17.4 .480  16
2023 09 21 09  20 48 01.344   -35 01 40.00  769720 1.0071 125.3 17.4 .447  16
2023 09 21 10  20 37 40.256   -37 34 47.34  768899 1.0069 122.2 17.5 .407  15